map of IXA home
Great Circle Mapper logo
IXA - Airport
Location
City:  Agartala, Tripura, India
ICAO:VEAT
IATA:IXA

Details
Type:Airport (Aerodrome, Airfield)
Latitude:23°53'13"N (23.886978)
Longitude:91°14'26"E (91.240450)
Datum:WGS 1984
Elevation:46 ft (14 m)
Variation:0.33°W (WMM2015 magnetic declination)
0.04° annual change
Runways:1
Longest:7500 × 148 ft (2286 × 45 m), paved

Time
Time Zone:UTC+5:30
Local Time:

Weather
METAR:VEAT 271400Z 00000KT 5000 BR FEW020 SCT100 27/24 Q1002 NOSIG

Related Locations
Nearby:
Farthest:SCFX: 11878 mi / 19116 km
Isla San Félix, Desventuradas Islands, VS, CL

Find:

   beyond  
but within

Other Information
Maps:
NOTAMs:
Links:
Sources:

  
flag of India   

Sectional Chart

Flight Planning
at skyvector.com

Satellite Image

Google Maps Satellite view

 

Copyright © 2004-2016 Karl L. Swartz. All rights reserved.
The Great Circle Mapper name and logo are trademarks of the Great Circle Mapper.
All other trademarks mentioned herein belong to their respective owners.
Please see credits for attibutions and further copyright information.

  Follow gcmap on Facebook Follow gcmap on Twitter Follow gcmap on Google+ GCmap on LinkedIn

hCard Microformat

Geo Microformat